Regional Weather Roundup
Issued by NWS

Home | Current Version | Previous Version | Text Only | Print | Product List | Glossary On
Versions: 1 2 3 4 5 6 7 8 9 10 11 12 13 14 15 16 17 18 19 20 21 22 23 24 25 26 27 28 29 30 31 32 33 34 35 36 37 38 39 40 41 42 43 44 45 46 47 48 49 50
000
ASUS43 KDMX 012307
RWRIA

WEATHER ROUNDUP FOR IOWA
NATIONAL WEATHER SERVICE DES MOINES IA
600 PM CDT WED OCT 01 2014

NOTE: "FAIR" INDICATES FEW OR NO CLOUDS BELOW 12,000 FEET WITH NO
SIGNIFICANT WEATHER AND/OR OBSTRUCTIONS TO VISIBILITY.

* - THESE STATIONS ARE NOT NWS STATIONS...THUS NOT UNDER NWS
QUALITY CONTROL.  THEY ALSO DO NOT REPORT WEATHER SUCH
AS PRECIPITATION OR FOG.

IAZ001>003-012>014-020>022-031>034-043>046-020000-
   NORTHWEST IOWA

CITY           SKY/WX    TMP DP  RH WIND       PRES   REMARKS
CARROLL *      SUNNY     72  63  73 S3        29.75R
CHEROKEE *     PTSUNNY   73  61  64 S6        29.73S
DENISON *      SUNNY     73  63  68 CALM      29.72S
LE MARS *      PTSUNNY   73  61  64 SE3       29.73S
ORANGE CITY *  MOSUNNY   75  55  50 W7        29.74R
SHELDON *      MOSUNNY   73  59  60 SW5       29.72S
SIOUX CITY     PTSUNNY   74  63  68 CALM      29.72S
SPENCER        MOSUNNY   71  60  68 SE8       29.75R
STORM LAKE *   SUNNY     73  59  60 SW3       29.76R
$$

IAZ055>058-069>071-079>083-090>094-020000-
   SOUTHWEST IOWA

CITY           SKY/WX    TMP DP  RH WIND       PRES   REMARKS
ATLANTIC *     MOSUNNY   73  66  78 CALM      29.74S
AUDUBON *      MOSUNNY   72  63  73 CALM      29.76S
CLARINDA *     MOSUNNY   77  64  65 E5        29.74R
COUNCIL BLFS * SUNNY     73  66  78 E3        29.73R
CRESTON *      MOSUNNY   70  64  83 SE10      29.76S
HARLAN  *      SUNNY     75  63  64 CALM      29.77S
LAMONI         CLEAR     70  65  84 E3        29.77S
RED OAK *      SUNNY     75  64  69 CALM      29.73S
SHENANDOAH *   SUNNY     77  64  65 N3        29.72S
$$

IAZ047>049-059>061-072>074-084-020000-
   CENTRAL IOWA

CITY           SKY/WX    TMP DP  RH WIND       PRES   REMARKS
AMES           CLOUDY    69  64  84 SE6       29.76S
ANKENY *       CLOUDY    70  64  83 S7        29.76S
CHARITON *     CLOUDY    68  64  88 S5        29.78S
DES MOINES     CLOUDY    71  64  78 S6        29.76S
GRINNELL*      CLOUDY    66  63  88 SE6       29.80S
KNOXVILLE *    MOCLDY    68  64  88 S5        29.77S
MARSHALLTOWN   CLOUDY    69  62  78 SE7       29.78R
PELLA *        MOCLDY    68  64  88 SE3       29.79F
PERRY *        MOCLDY    70  64  83 SE3       29.76R
$$

IAZ004>006-015-016-023>025-035-036-020000-
   NORTH CENTRAL IOWA

CITY           SKY/WX    TMP DP  RH WIND       PRES   REMARKS
ALGONA *       CLEAR     70  64  83 SE5       29.76R
CLARION *      CLEAR     68  64  88 S7        29.77S
ESTHERVILLE    CLEAR     69  58  67 S7        29.75R
FORT DODGE *   MOCLDY    70  63  78 S5        29.77R
MASON CITY     CLOUDY    65  61  87 SE3       29.80R
FOREST CITY *  PTCLDY    64  63  94 SE7       29.78S
IOWA FALLS *     N/A     68  61  77 SE3       29.78S
$$

IAZ007>011-017>019-026>030-037>042-050>054-066-020000-
   NORTHEAST IOWA

CITY           SKY/WX    TMP DP  RH WIND       PRES   REMARKS
CEDAR RAPIDS   CLOUDY    66  61  82 SE9       29.81S
CHARLES CITY * MOCLDY    66  59  77 SE7       29.80S
CLINTON *      CLOUDY    72  59  64 S9        29.86R
DECORAH *      CLOUDY    66  55  68 S3        29.80S
MONTICELLO *   CLOUDY    70  59  68 S9        29.82S
OELWEIN *      CLOUDY    68  61  77 S8        29.81S
WATERLOO       CLOUDY    68  61  78 SE8       29.78S
$$

IAZ064-065-067-068-078-020000-
   EAST CENTRAL IOWA

CITY           SKY/WX    TMP DP  RH WIND       PRES   REMARKS
IOWA CITY      CLOUDY    67  62  84 SE6       29.82S
MT. PLEASANT * CLOUDY    66  64  94 SE6       29.80F
MUSCATINE *    CLEAR     68  63  83 S7        29.82R
QUAD CITIES    MOCLDY    70  60  70 SW3       29.82R
$$

IAZ062-063-075>077-085>089-095>099-020000-
   SOUTHEAST IOWA

CITY           SKY/WX    TMP DP  RH WIND       PRES   REMARKS
BURLINGTON     LGT RAIN  66  64  93 S12       29.80S
FAIRFIELD *    CLOUDY    66  63  88 S7        29.80F
FORT MADISON * LGT RAIN  66  64  94 S5        29.80F
KEOKUK *       CLOUDY    66  64  94 SE13G20   29.77F FOG
OSKALOOSA *    MOCLDY    68  64  88 S8        29.79S
CENTERVILLE *  CLOUDY    66  66 100 SE3       29.80S
OTTUMWA        MOCLDY    67  63  87 S7        29.78S
WASHINGTON *   MOCLDY    66  64  94 S8G14     29.81S
$$

ABBREVIATIONS USED IN REMARKS
   TC - TEMPERATURES IN CELSIUS
  WCI - WIND CHILL INDEX
   HX - HEAT INDEX
  VSB - VISIBILITY
$$




USA.gov is the U.S. government's official web portal to all federal, state and local government web resources and services.